Rechercher aéroport 
image banner adimage banner adimage banner ad
image banner ad

5CA7 - Agro-West

Situé à Five Points, United States

ICAO - 5CA7, IATA -

Données fournies par Airmate  

Information générale

Coordonnées: N36°20'10" W120°14'51"
Élévation : 335 feet MSL.
Variation magnétique : 15° East
Voir autres Aéroports à California

Données opérationnelles

Special qualification required
Heure actuelle UTC:
Heure actuelle locale:
Météo à : KNLC - Lemoore Nas (Reeves Fld) ( 26 km )
METAR: KNLC 191256Z AUTO 15004KT 10SM CLR 03/M02 A3004 RMK AO2 SLP173 T00331017
TAF: TAF KNLC 1907/2007 VRB06KT 9999 SKC QNH3000INS FM191900 15006KT 9999 SKC QNH2991INS BECMG 2002/2004 23006KT 9999 FEW250 QNH2992INS AUTOMATED SENSOR METWATCH 1907 TIL 1915 T03/1914Z T22/1923Z FS30173
Voir NOTAMs / SUP AIP / TFR affectant cet aéroport [VIEW]
Fréquences de communication: [VIEW]

Pistes:

Identifiant RWYQFULongueur (ft)Largeur (ft)SurfaceLDA (ft)
16300040ASPH
34300040ASPH

Coordonnées de l'aéroport

Adresse: Five Points United States

Vue satellite de 5CA7